Home > Weather > Wunstorf > Past weeks

Flag for Germany Weather for the Past 2 Weeks in Wunstorf, Lower Saxony, Germany

Now
52 °F

Cool.


Feels Like: 51 °F
Forecast: 49 / 72 °F
Wind: 5 mph from East

Location: Wunstorf Airport

Current Time: May 5, 2016 at 10:46:54 AM

Latest Report: May 5, 2016 at 9:20 AM


Visibility: N/A

Pressure: 30.39 "Hg

Humidity: 62%

Dew Point: 39 °F

Location of WunstorfLocation

Historic Weather in Wunstorf — Graph

°F

Wunstorf Temperature Yesterday

Maximum temperature yesterday: 59 °F (at 6:20 PM)
Minimum temperature yesterday: 34 °F (at 5:20 AM)
Average temperature yesterday: 48 °F

High & Low Weather Summary for the Past Weeks

 TemperatureHumidityPressure
High68 °F (May 2, 4:20 PM)100% (Apr 30, 5:20 AM)30.45 "Hg (Apr 30, 5:20 AM)
Low32 °F (Apr 21, 5:20 AM)26% (May 2, 5:20 PM)29.39 "Hg (Apr 26, 1:20 PM)
Average45 °F70%30.01 "Hg
* Reported Apr 20 9:20 AM — May 5 9:20 AM, Wunstorf, Weather by CustomWeather, © 2016

Note: Actual official high and low records may vary slightly from our data, if they occured in-between our weather recording intervals... More about our weather records

Advertising

Wunstorf Weather History for the Previous 24 Hours

Scroll right to see more
 ConditionsComfort  
Time TempWeatherWind HumidityBarometerVisibility
9:20 AM
Thu, May 5
52 °FCool.5 mph62%30.39 "HgN/A
8:20 AM46 °FCool.5 mph66%30.39 "HgN/A
7:20 AM41 °FQuite cool.3 mph76%30.39 "HgN/A
6:20 AM37 °FChilly.3 mph87%30.39 "Hg4 mi
5:20 AM37 °FChilly.2 mph87%30.39 "Hg4 mi
4:20 AM37 °FChilly.3 mph87%30.39 "Hg4 mi
3:20 AM39 °FChilly.2 mph75%30.39 "Hg4 mi
2:20 AM41 °FQuite cool.2 mph76%30.39 "Hg4 mi
1:20 AM41 °FQuite cool.2 mph81%30.39 "Hg4 mi
12:20 AM45 °FQuite cool.1 mph71%30.39 "Hg4 mi
11:20 PM
Wed, May 4
43 °FQuite cool.No wind71%30.39 "Hg4 mi
10:20 PM50 °FCool.2 mph50%30.39 "Hg4 mi
9:20 PM52 °FCool.3 mph50%30.36 "Hg5 mi
8:20 PM57 °FRefreshingly cool.5 mph36%30.36 "Hg6 mi
7:20 PM59 °FPassing clouds.3 mph31%30.36 "HgN/A
6:20 PM59 °FPassing clouds.6 mph34%30.36 "HgN/A
5:20 PM57 °FScattered clouds.7 mph36%30.36 "HgN/A
4:20 PM57 °FScattered clouds.3 mph39%30.36 "HgN/A
3:20 PM55 °FScattered clouds.8 mph38%30.39 "HgN/A
2:20 PM57 °FScattered clouds.5 mph39%30.39 "HgN/A
1:20 PM54 °FScattered clouds.3 mph47%30.39 "HgN/A
12:20 PM54 °FScattered clouds.5 mph47%30.39 "HgN/A
11:20 AM52 °FScattered clouds.6 mph58%30.39 "HgN/A
10:20 AM50 °FScattered clouds.5 mph67%30.39 "HgN/A
Weather by CustomWeather, © 2016

See weather overviewHow to use our weather pages